Location: Bonac
(42.8765°N, 0.9753°E)
Time: 19:18:35
(UTC+00:00)

Cosmos 1953 - Pass Details

Date: 11 April 2026
Orbit: 471 x 483 km, 82.5° (Epoch: 12 May)

Event Time Altitude Azimuth Distance (km) Brightness Sun altitude
Rises 19:33:59 0° 197° (SSW) 2,503 5.6 -11.3°
Reaches altitude 10° 19:36:05 10° 202° (SSW) 1,632 4.7 -11.7°
Maximum altitude 19:39:35 54° 280° (W) 584 2.9 -12.3°
Drops below altitude 10° 19:43:07 10° 359° (N) 1,651 5.1 -12.8°
Sets 19:45:16 0° 4° (N) 2,537 6.0 -13.2°
